STARLINK-4389, 53475

Orbit data source: Space-Track

STARLINK-4389, 53475 is a payload satellite owned by SpaceX/Seattle (US) in SSO that was launched on Fri, 12 Aug 2022 UTC via an FALCON 9 launch vehicle from the Air Force Western Test Range (AFWTR). Payload-class satellites include a variety of spacecraft equipped with specific instruments for various scientific and technological missions. These include communications satellites like Starlink; space stations such as the ISS; scientific satellites like the Hubble; Earth observation satellites from companies like Planet Labs, Umbra, and HawkEye 360; GPS; miniature CubeSats for education and research; and military/defense satellites.

Loading next visibility...
Identifier
53475, 2022-099L
Orbit
SSO
Country
Flag of USUS
Related business
Manufacturer
SpaceX/Seattle
Mission
Operational Commercial Communications
Bus & Motor
STARLINK, Unknown motor
Mass
300 kg wet, ~275 kg dry
Launch date (UTC)
2022-08-12 (3 years ago)
Launch vehicle
FALCON 9
Launch site
Air Force Western Test Range (AFWTR)
Object type
Payload
Rocket body
Debris
Shape & HBR
Box + 1 Pan, 10.1 m
Radar Cross Section
13.562 m², Large (>1 m²)

Expand to show TLE details & history
Last TLE update: 9 hours ago

TLE from 9 hours ago
0 STARLINK-4389
1 53475U 22099L   25293.60772926  .00000895  00000-0  74247-4 0  9996
2 53475  97.6040  53.0758 0002016  91.0884 269.0572 15.01259957175669
Epoch: 2025-10-20T14:35Z
TLE epoch observation values (Epoch: 2025-10-20T14:35:07.808Z)
Latitude
0.00007°
Longitude
164.98565°
Altitude
566.092 km
Speed
7.578 km/s
True Right ascension
03h 32m 18s
True Declination
0° 00' 00"
Sunlit
Object was in full shadow at epoch
Visualization orbit readout
Latitude
Unknown
Longitude
Unknown
Altitude
Unknown
Speed
Unknown
Apparent Right ascension
Unknown
Apparent Declination
Unknown
Sunlit
N/A
Visualization observer readout
Local Sidereal Time
18:15:58
Azimuth
Unknown
Elevation
Unknown
Doppler factor
Unknown
Orbital elements
Apogee altitude
561.408 km
Perigee altitude
558.611 km
Semi-major axis
6,938.146 km
Eccentricity
0.0002
Inclination
97.604°
RAAN
53.0758°
Arg. of periapsis
91.0884°
True anomaly
269.0341°
Mean anomaly
269.0572°
Eccentric anomaly
269.04565°
Mean motion
3.75559 °/min
Orbital period
95.86 mins
BSTAR
0.000074247
Loading maneuver chart data...
Computing Atmospheric mass density...
Loading historical data...
Loading historical data...
Loading historical data...
Loading historical data...
Loading historical data...
Loading historical data...
Loading historical data...

Documentation

Showing up to 5 results
|